Location: Central Coast NSW, Australia
(33.2407°S, 151.4316°E)
Time: 06:59:08
(UTC+11:00)

Envisat - Pass Details

Date: 26 March 2019
Orbit: 764 x 766 km, 98.1° (Epoch: 22 October)

Event Time Altitude Azimuth Distance (km) Brightness Sun altitude
Rises 21:45:21 0° 193° (SSW) 3,264 6.7 -34.9°
Reaches altitude 10° 21:49:11 10° 222° (SW) 2,326 6.2 -35.7°
Maximum altitude 21:51:05 12° 244° (WSW) 2,179 6.1 -36.0°
Drops below altitude 10° 21:52:58 10° 266° (W) 2,316 6.1 -36.4°
Sets 21:56:47 0° 296° (WNW) 3,230 6.7 -37.1°
